FW1194 Weather Reports


time (UTC)temp
C
wind
direction
speed
KPH
gust
KPH
rain 1hr
cm
rain 24hr
cm
rain mn
cm
humidity
%
barometer
mb
20260506182216 12 248 16.1 22.5 0.00 0.00 0.00 36 1012.7
20260506181216 12 270 9.7 20.9 0.00 0.00 0.00 36 1012.6
20260506180216 13 248 12.9 22.5 0.00 0.00 0.00 36 1012.7
20260506175216 12 225 12.9 20.9 0.00 0.00 0.00 38 1012.6
20260506174216 12 225 19.3 30.6 0.00 0.00 0.00 37 1012.9
20260506173216 12 248 19.3 24.1 0.00 0.00 0.00 38 1012.8
20260506172236 12 270 14.5 22.5 0.00 0.00 0.00 36 1012.8
20260506171216 12 203 14.5 19.3 0.00 0.00 0.00 38 1013.1
20260506170236 12 270 19.3 32.2 0.00 0.00 0.00 37 1013.1
20260506165216 12 293 14.5 24.1 0.00 0.00 0.00 38 1013.2
20260506164236 12 270 16.1 29.0 0.00 0.00 0.00 39 1013.2
20260506163216 12 248 12.9 17.7 0.00 0.00 0.00 36 1013.1
20260506162215 12 270 9.7 16.1 0.00 0.00 0.00 36 1013.2
20260506161216 12 225 16.1 22.5 0.00 0.00 0.00 37 1013.2
20260506160215 12 248 19.3 24.1 0.00 0.00 0.00 39 1013.1
20260506155215 11 225 12.9 17.7 0.00 0.00 0.00 40 1013.2
20260506154218 11 270 17.7 22.5 0.00 0.00 0.00 39 1013.1
20260506153218 12 270 12.9 17.7 0.00 0.00 0.00 37 1013.0
20260506152218 12 248 8.0 12.9 0.00 0.00 0.00 39 1013.2
20260506151217 12 270 14.5 19.3 0.00 0.00 0.00 39 1013.2
20260506150238 12 248 8.0 16.1 0.00 0.00 0.00 39 1013.2
20260506145218 11 225 8.0 9.7 0.00 0.00 0.00 42 1013.2
20260506144217 11 248 11.3 16.1 0.00 0.00 0.00 40 1013.3
20260506143218 11 270 4.8 11.3 0.00 0.00 0.00 39 1013.3
20260506142218 11 293 4.8 9.7 0.00 0.00 0.00 39 1013.2
20260506141218 11 203 8.0 12.9 0.00 0.00 0.00 43 1013.2
20260506140217 11 225 4.8 6.4 0.00 0.00 0.00 46 1013.2
20260506135217 10 203 4.8 6.4 0.00 0.00 0.00 44 1013.0
20260506134218 10 203 8.0 9.7 0.00 0.00 0.00 48 1012.8
20260506133217 10 203 4.8 6.4 0.00 0.00 0.00 53 1012.6
20260506132217 10 203 3.2 4.8 0.00 0.00 0.00 54 1012.5
20260506131217 9 203 3.2 4.8 0.00 0.00 0.00 60 1012.4
20260506130218 8 158 3.2 4.8 0.00 0.00 0.00 64 1012.4
20260506125217 7 203 1.6 3.2 0.00 0.00 0.00 70 1012.3
20260506124217 6 0.0 1.6 0.00 0.00 0.00 76 1012.2
20260506123217 6 293 1.6 3.2 0.00 0.00 0.00 77 1012.0
20260506122217 5 338 1.6 3.2 0.00 0.00 0.00 79 1011.8
20260506121217 5 0.0 0.0 0.00 0.00 0.00 80 1011.5
20260506120217 4 0.0 1.6 0.00 0.00 0.00 80 1011.6
20260506115217 4 0.0 1.6 0.00 0.00 0.00 80 1011.5
20260506114217 3 0.0 1.6 0.00 0.00 0.00 81 1011.4
20260506113217 3 0.0 0.0 0.00 0.00 0.00 80 1011.3
20260506112318 3 0.0 1.6 0.00 0.00 0.00 79 1011.2
20260506111217 3 0.0 0.0 0.00 0.00 0.00 79 1011.2
20260506110217 3 0.0 1.6 0.00 0.00 0.00 79 1011.3
20260506105237 3 0.0 1.6 0.00 0.00 0.00 79 1011.1
20260506104217 3 45 1.6 3.2 0.00 0.00 0.00 78 1010.9
20260506103217 3 45 1.6 1.6 0.00 0.00 0.00 77 1010.7
20260506102217 3 0.0 1.6 0.00 0.00 0.00 75 1010.5
20260506101217 4 0.0 0.0 0.00 0.00 0.00 74 1010.4
20260506100217 4 0.0 0.0 0.00 0.00 0.00 75 1010.4
20260506095258 4 0.0 0.0 0.00 0.00 0.00 74 1010.5
20260506094217 4 0.0 0.0 0.00 0.00 0.00 73 1010.4
20260506093217 4 0.0 0.0 0.00 0.00 0.00 72 1010.4
20260506092237 4 0.0 1.6 0.00 0.00 0.00 71 1010.4
20260506091217 4 45 1.6 1.6 0.00 0.00 0.00 71 1010.3
20260506090257 4 0.0 0.0 0.00 0.00 0.00 70 1010.5
20260506085217 4 0.0 0.0 0.00 0.00 0.00 68 1010.5
20260506084217 4 0.0 1.6 0.00 0.00 0.00 66 1010.3
20260506083218 5 0.0 0.0 0.00 0.00 0.00 65 1010.1
20260506082217 5 0.0 0.0 0.00 0.00 0.00 65 1010.2
20260506081237 5 0.0 0.0 0.00 0.00 0.00 64 1010.1
20260506080217 6 0.0 0.0 0.00 0.00 0.00 60 1010.2
20260506073216 6 23 1.6 4.8 0.00 0.00 0.00 55 1010.2
20260506072217 7 68 1.6 3.2 0.00 0.00 0.00 54 1009.9
20260506071217 7 45 1.6 4.8 0.00 0.00 0.00 53 1009.8
20260506070217 7 23 1.6 1.6 0.00 0.00 0.00 52 1009.8
20260506062216 8 0 3.2 3.2 0.00 0.00 0.00 49 1010.1
20260506061217 8 0 3.2 6.4 0.00 0.00 0.00 49 1010.0
20260506060217 8 23 3.2 3.2 0.00 0.00 0.00 49 1009.9
20260506051216 9 315 3.2 3.2 0.00 0.00 0.00 48 1009.5
20260506050216 10 0 1.6 3.2 0.00 0.00 0.00 47 1009.5
20260506044258 10 315 3.2 6.4 0.00 0.00 0.00 45 1009.3
20260506043217 10 338 4.8 6.4 0.00 0.00 0.00 45 1009.5
20260506042238 10 293 3.2 8.0 0.00 0.00 0.00 44 1009.5
20260506041238 10 338 1.6 3.2 0.00 0.00 0.00 43 1009.5
20260506040217 10 0 3.2 6.4 0.00 0.00 0.00 44 1009.5
20260506035217 10 23 4.8 8.0 0.00 0.00 0.00 43 1009.1
20260506034217 10 315 4.8 11.3 0.00 0.00 0.00 43 1009.2
20260506033217 10 0 3.2 12.9 0.00 0.00 0.00 43 1009.1
20260506032217 10 315 8.0 12.9 0.00 0.00 0.00 44 1008.8
20260506031217 10 338 4.8 11.3 0.00 0.00 0.00 48 1008.7
20260506030217 10 293 1.6 3.2 0.00 0.00 0.00 46 1008.7
20260506025217 10 0.0 1.6 0.00 0.00 0.00 45 1008.5
20260506024217 11 270 1.6 1.6 0.00 0.00 0.00 45 1008.7
20260506023217 11 270 1.6 3.2 0.00 0.00 0.00 44 1008.7
20260506022217 11 315 1.6 1.6 0.00 0.00 0.00 43 1008.3
20260506021217 11 293 3.2 3.2 0.00 0.00 0.00 42 1008.3
20260506020217 11 293 3.2 4.8 0.00 0.00 0.00 42 1008.1
20260506015217 11 315 3.2 4.8 0.00 0.00 0.00 41 1007.9
20260506014217 11 293 1.6 1.6 0.00 0.00 0.00 41 1007.9
20260506013217 11 270 3.2 3.2 0.00 0.00 0.00 40 1007.6
20260506012217 11 315 1.6 3.2 0.00 0.00 0.00 39 1007.5
20260506011217 12 293 4.8 8.0 0.00 0.00 0.00 39 1007.5
20260506010217 12 315 8.0 12.9 0.00 0.00 0.00 38 1007.3
20260506005217 12 270 6.4 17.7 0.00 0.00 0.00 38 1007.1
20260506004217 12 270 3.2 8.0 0.00 0.00 0.00 38 1007.2
20260506003217 12 293 8.0 17.7 0.00 0.00 0.00 38 1006.9
20260506002217 12 293 1.6 3.2 0.00 0.00 0.00 38 1006.9
20260506001217 12 293 4.8 6.4 0.00 0.00 0.00 37 1007.0
20260506000219 12 270 3.2 6.4 0.00 0.00 0.00 38 1007.1
20260505235217 12 293 1.6 3.2 0.00 0.25 0.00 37 1006.9
20260505234217 12 338 6.4 12.9 0.00 0.25 0.00 36 1007.0
20260505233216 12 293 11.3 14.5 0.00 0.25 0.00 36 1007.0
20260505232217 12 315 11.3 20.9 0.00 0.25 0.00 35 1007.1
20260505231216 12 0 4.8 16.1 0.00 0.25 0.00 36 1007.0
20260505230216 13 293 8.0 11.3 0.00 0.25 0.00 36 1007.0
20260505225217 13 270 8.0 17.7 0.00 0.48 0.00 35 1007.1
20260505224237 13 270 11.3 16.1 0.00 0.48 0.00 34 1007.4
20260505223216 13 248 11.3 14.5 0.00 0.48 0.00 34 1007.4
20260505222257 13 270 11.3 19.3 0.00 0.48 0.00 34 1007.3
20260505221217 12 270 6.4 11.3 0.00 0.48 0.00 35 1007.2
20260505220217 13 293 9.7 14.5 0.00 0.48 0.00 33 1007.3
20260505215237 13 248 11.3 16.1 0.00 0.48 0.00 33 1007.6
20260505214217 13 315 8.0 16.1 0.00 0.48 0.00 33 1007.5
20260505213217 13 248 6.4 9.7 0.00 0.48 0.00 34 1007.4
20260505212216 13 270 12.9 17.7 0.00 0.48 0.00 33 1007.4
20260505211237 13 315 4.8 8.0 0.00 0.48 0.00 34 1007.4
20260505210216 13 248 12.9 16.1 0.00 0.48 0.00 33 1007.4
20260505205216 13 270 11.3 20.9 0.00 0.48 0.00 34 1007.4
20260505204216 13 293 12.9 19.3 0.00 0.48 0.00 33 1007.5
20260505203216 13 293 12.9 19.3 0.00 0.48 0.00 32 1007.8
20260505202216 13 270 12.9 19.3 0.00 0.48 0.00 32 1007.8
20260505201337 13 270 14.5 19.3 0.00 0.48 0.00 31 1007.8
20260505200257 13 315 9.7 14.5 0.00 0.48 0.00 31 1007.8
20260505195216 13 270 9.7 12.9 0.00 0.48 0.00 31 1007.7
20260505194216 13 293 9.7 14.5 0.00 0.48 0.00 32 1007.7
20260505193317 13 270 11.3 16.1 0.00 0.48 0.00 32 1007.7
20260505192216 13 270 11.3 17.7 0.00 0.48 0.00 33 1007.8
20260505191216 13 270 9.7 14.5 0.00 0.48 0.00 33 1008.2
20260505190216 13 248 9.7 16.1 0.00 0.48 0.00 31 1008.0
20260505185216 13 270 14.5 20.9 0.00 0.48 0.00 33 1007.9
20260505184216 13 248 9.7 14.5 0.00 0.48 0.00 31 1008.1
20260505183237 13 270 14.5 19.3 0.00 0.48 0.00 31 1008.1